Meteo18 Weather Cam more information Meteo18 Weather Cam


Thunder radar more information blitzortung!


Rain radar more information rain snow radar



Select another period ( hide this area )

Units Period Custom range Directly to
Metric English Both
Daily Weekly Monthly Yearly
use both date-selectors for a custom range
previous Day
With this date

WeatherUnderground graphs for this period ( click here )


Daily Summary for Sunday 19 August 2018
Time Temp. ( °C ) Dew pt. ( °C ) Wind ( km/h ) from Gust ( km/h ) Pressure ( hPa ) Humid.( % ) Rainrate ( cm )
High18,6 12,4 8,0 NW ( 23/66 ) 9,7 1023,9 82 -
Average15,4 10,3 0,7 Calm #74/100 1,2 1023,5 72 -
Low14,1 9,3 -   0,0 1023,2 62 -
Daily Tabular details for Sunday 19 August 2018
Time Temp. ( °C ) Dew pt. ( °C ) Wind ( km/h ) from Gust ( km/h ) Pressure ( hPa ) Humid.( % ) Rainrate ( cm )
00:04 17,2 9,9   Calm   1023,6 62 -
00:08 17,1 9,8   Calm   1023,6 62 -
00:14 16,9 9,6   Calm   1023,6 62 -
00:18 16,8 9,7   Calm   1023,6 63 -
00:24 16,9 9,8   Calm   1023,6 63 -
00:28 16,9 9,8   Calm   1023,6 63 -
00:34 16,9 9,8   Calm   1023,6 63 -
00:38 16,7 9,6   Calm   1023,9 63 -
00:44 16,6 9,8   Calm   1023,6 64 -
00:48 16,6 9,8   Calm   1023,6 64 -
00:54 16,6 9,8   Calm   1023,6 64 -
00:58 16,6 9,8   Calm   1023,6 64 -
01:04 16,6 9,8   Calm   1023,6 64 -
01:08 16,4 9,8   Calm   1023,2 65 -
01:14 16,2 9,8   Calm   1023,2 66 -
01:18 16,2 9,6   Calm   1023,2 65 -
01:24 16,1 9,7   Calm   1023,6 66 -
01:28 16,1 9,7   Calm   1023,6 66 -
01:34 16,1 9,7   Calm   1023,6 66 -
01:38 16,2 9,8   Calm   1023,2 66 -
01:44 16,2 9,6   Calm   1023,6 65 -
01:48 16,0 9,7   Calm   1023,2 66 -
01:53 15,8 9,7   Calm   1023,2 67 -
01:59 15,8 9,7   Calm   1023,6 67 -
02:03 15,8 9,7   Calm   1023,6 67 -
02:09 15,6 9,5   Calm   1023,6 67 -
02:13 15,5 9,4   Calm   1023,6 67 -
02:19 15,3 9,4   Calm   1023,6 68 -
02:23 15,2 9,3   Calm   1023,6 68 -
02:29 15,1 9,5   Calm   1023,6 69 -
02:33 15,1 9,7   Calm   1023,6 70 -
02:39 15,1 9,7   Calm   1023,6 70 -
02:43 15,0 9,6   Calm   1023,6 70 -
02:49 14,8 9,6   Calm   1023,6 71 -
02:53 14,7 9,5   Calm   1023,6 71 -
02:59 14,7 9,7 8,0 North 8,0 1023,6 72 -
03:03 14,5 9,3 1,4 NE 9,7 1023,6 71 -
03:09 14,5 9,5   Calm   1023,6 72 -
03:13 14,6 9,6 3,2 WNW 3,2 1023,6 72 -
03:19 14,8 9,8   Calm   1023,6 72 -
03:23 14,9 9,7   Calm 1,6 1023,2 71 -
03:29 14,8 9,6 1,4 WNW 1,6 1023,2 71 -
03:33 14,8 9,6   Calm 1,6 1023,6 71 -
03:39 14,7 9,7   Calm   1023,6 72 -
03:43 14,8 9,6   Calm   1023,6 71 -
03:49 14,7 9,5 3,2 NNE 4,8 1023,6 71 -
03:53 14,6 9,6 3,2 North 3,2 1023,6 72 -
03:57 14,7 9,7 3,2 North 3,2 1023,6 72 -
04:04 14,7 9,7 3,2 NNW 4,8 1023,6 72 -
04:08 14,8 9,8 3,2 NNW 4,8 1023,6 72 -
04:14 15,1 9,9 3,2 NNW 3,2 1023,6 71 -
04:18 15,2 10,0 1,4 NNW 3,2 1023,6 71 -
04:24 15,3 10,1 3,2 NW 3,2 1023,6 71 -
04:28 15,3 10,1 3,2 NW 3,2 1023,6 71 -
04:34 15,6 10,6 1,4 WNW 4,8 1023,6 72 -
04:38 15,7 10,5 1,4 NW 3,2 1023,6 71 -
04:44 15,6 10,6   Calm 1,6 1023,6 72 -
04:48 15,5 10,5 1,4 WNW 1,6 1023,2 72 -
04:54 15,4 10,6 1,4 NNW 3,2 1023,2 73 -
04:58 15,4 10,8 3,2 NW 4,8 1023,2 74 -
05:04 15,4 10,8 1,4 NW 1,6 1023,2 74 -
05:08 15,4 10,8   Calm   1023,2 74 -
05:14 15,3 10,9 3,2 NW 3,2 1023,2 75 -
05:18 15,3 11,1 1,4 NNW 6,4 1023,2 76 -
05:24 15,4 11,0 1,4 NW 3,2 1023,2 75 -
05:28 15,3 11,1 4,7 NW 4,8 1023,2 76 -
05:34 15,3 11,1 1,4 NNW 3,2 1023,2 76 -
05:38 15,3 11,3 1,4 NW 4,8 1023,2 77 -
05:44 15,3 11,3   Calm 1,6 1023,2 77 -
05:48 15,2 11,2   Calm   1023,2 77 -
05:54 15,1 11,1   Calm   1023,2 77 -
05:58 15,0 11,2   Calm   1023,2 78 -
06:02 14,9 10,9   Calm   1023,2 77 -
06:09 14,7 10,9   Calm   1023,2 78 -
06:13 14,5 10,7   Calm   1023,2 78 -
06:19 14,3 10,7   Calm   1023,2 79 -
06:23 14,3 10,9   Calm   1023,2 80 -
06:29 14,3 10,9   Calm   1023,2 80 -
06:33 14,3 11,1   Calm 1,6 1023,2 81 -
06:39 14,3 11,1   Calm 3,2 1023,2 81 -
06:43 14,4 11,2   Calm 3,2 1023,2 81 -
06:49 14,4 11,2 1,4 NNW 3,2 1023,2 81 -
06:53 14,3 11,1   Calm 3,2 1023,2 81 -
06:59 14,1 10,9   Calm 1,6 1023,2 81 -
07:03 14,1 11,1   Calm 1,6 1023,2 82 -
07:09 14,1 10,9   Calm   1023,2 81 -
07:13 14,2 11,0   Calm   1023,6 81 -
07:19 14,3 11,1   Calm   1023,6 81 -
07:23 14,3 10,9   Calm   1023,6 80 -
07:29 14,5 11,3   Calm   1023,6 81 -
07:33 14,9 11,3   Calm   1023,6 79 -
07:39 15,1 11,3   Calm   1023,6 78 -
07:43 15,0 11,4   Calm   1023,6 79 -
07:49 15,2 11,6   Calm   1023,9 79 -
07:53 15,3 11,5   Calm   1023,9 78 -
07:59 15,9 11,7   Calm   1023,6 76 -
08:03 16,4 11,8   Calm   1023,9 74 -
08:09 16,8 11,5   Calm   1023,9 71 -
08:13 17,4 11,9   Calm   1023,9 70 -
08:19 18,6 12,4   Calm   1023,9 67 -
Daily Summary for Sunday 19 August 2018
Time Temp. ( °C ) Dew pt. ( °C ) Wind ( km/h ) from Gust ( km/h ) Pressure ( hPa ) Humid.( % ) Rainrate ( cm )
High18,6 12,4 8,0 NW ( 23/66 ) 9,7 1023,9 82 -
Average15,4 10,3 0,7 Calm #74/100 1,2 1023,5 72 -
Low14,1 9,3 -   0,0 1023,2 62 -
Daily Tabular details for Sunday 19 August 2018
Time Temp. ( °C ) Dew pt. ( °C ) Wind ( km/h ) from Gust ( km/h ) Pressure ( hPa ) Humid.( % ) Rainrate ( cm )
00:04 17,2 9,9   Calm   1023,6 62 -
00:08 17,1 9,8   Calm   1023,6 62 -
00:14 16,9 9,6   Calm   1023,6 62 -
00:18 16,8 9,7   Calm   1023,6 63 -
00:24 16,9 9,8   Calm   1023,6 63 -
00:28 16,9 9,8   Calm   1023,6 63 -
00:34 16,9 9,8   Calm   1023,6 63 -
00:38 16,7 9,6   Calm   1023,9 63 -
00:44 16,6 9,8   Calm   1023,6 64 -
00:48 16,6 9,8   Calm   1023,6 64 -
00:54 16,6 9,8   Calm   1023,6 64 -
00:58 16,6 9,8   Calm   1023,6 64 -
01:04 16,6 9,8   Calm   1023,6 64 -
01:08 16,4 9,8   Calm   1023,2 65 -
01:14 16,2 9,8   Calm   1023,2 66 -
01:18 16,2 9,6   Calm   1023,2 65 -
01:24 16,1 9,7   Calm   1023,6 66 -
01:28 16,1 9,7   Calm   1023,6 66 -
01:34 16,1 9,7   Calm   1023,6 66 -
01:38 16,2 9,8   Calm   1023,2 66 -
01:44 16,2 9,6   Calm   1023,6 65 -
01:48 16,0 9,7   Calm   1023,2 66 -
01:53 15,8 9,7   Calm   1023,2 67 -
01:59 15,8 9,7   Calm   1023,6 67 -
02:03 15,8 9,7   Calm   1023,6 67 -
02:09 15,6 9,5   Calm   1023,6 67 -
02:13 15,5 9,4   Calm   1023,6 67 -
02:19 15,3 9,4   Calm   1023,6 68 -
02:23 15,2 9,3   Calm   1023,6 68 -
02:29 15,1 9,5   Calm   1023,6 69 -
02:33 15,1 9,7   Calm   1023,6 70 -
02:39 15,1 9,7   Calm   1023,6 70 -
02:43 15,0 9,6   Calm   1023,6 70 -
02:49 14,8 9,6   Calm   1023,6 71 -
02:53 14,7 9,5   Calm   1023,6 71 -
02:59 14,7 9,7 8,0 North 8,0 1023,6 72 -
03:03 14,5 9,3 1,4 NE 9,7 1023,6 71 -
03:09 14,5 9,5   Calm   1023,6 72 -
03:13 14,6 9,6 3,2 WNW 3,2 1023,6 72 -
03:19 14,8 9,8   Calm   1023,6 72 -
03:23 14,9 9,7   Calm 1,6 1023,2 71 -
03:29 14,8 9,6 1,4 WNW 1,6 1023,2 71 -
03:33 14,8 9,6   Calm 1,6 1023,6 71 -
03:39 14,7 9,7   Calm   1023,6 72 -
03:43 14,8 9,6   Calm   1023,6 71 -
03:49 14,7 9,5 3,2 NNE 4,8 1023,6 71 -
03:53 14,6 9,6 3,2 North 3,2 1023,6 72 -
03:57 14,7 9,7 3,2 North 3,2 1023,6 72 -
04:04 14,7 9,7 3,2 NNW 4,8 1023,6 72 -
04:08 14,8 9,8 3,2 NNW 4,8 1023,6 72 -
04:14 15,1 9,9 3,2 NNW 3,2 1023,6 71 -
04:18 15,2 10,0 1,4 NNW 3,2 1023,6 71 -
04:24 15,3 10,1 3,2 NW 3,2 1023,6 71 -
04:28 15,3 10,1 3,2 NW 3,2 1023,6 71 -
04:34 15,6 10,6 1,4 WNW 4,8 1023,6 72 -
04:38 15,7 10,5 1,4 NW 3,2 1023,6 71 -
04:44 15,6 10,6   Calm 1,6 1023,6 72 -
04:48 15,5 10,5 1,4 WNW 1,6 1023,2 72 -
04:54 15,4 10,6 1,4 NNW 3,2 1023,2 73 -
04:58 15,4 10,8 3,2 NW 4,8 1023,2 74 -
05:04 15,4 10,8 1,4 NW 1,6 1023,2 74 -
05:08 15,4 10,8   Calm   1023,2 74 -
05:14 15,3 10,9 3,2 NW 3,2 1023,2 75 -
05:18 15,3 11,1 1,4 NNW 6,4 1023,2 76 -
05:24 15,4 11,0 1,4 NW 3,2 1023,2 75 -
05:28 15,3 11,1 4,7 NW 4,8 1023,2 76 -
05:34 15,3 11,1 1,4 NNW 3,2 1023,2 76 -
05:38 15,3 11,3 1,4 NW 4,8 1023,2 77 -
05:44 15,3 11,3   Calm 1,6 1023,2 77 -
05:48 15,2 11,2   Calm   1023,2 77 -
05:54 15,1 11,1   Calm   1023,2 77 -
05:58 15,0 11,2   Calm   1023,2 78 -
06:02 14,9 10,9   Calm   1023,2 77 -
06:09 14,7 10,9   Calm   1023,2 78 -
06:13 14,5 10,7   Calm   1023,2 78 -
06:19 14,3 10,7   Calm   1023,2 79 -
06:23 14,3 10,9   Calm   1023,2 80 -
06:29 14,3 10,9   Calm   1023,2 80 -
06:33 14,3 11,1   Calm 1,6 1023,2 81 -
06:39 14,3 11,1   Calm 3,2 1023,2 81 -
06:43 14,4 11,2   Calm 3,2 1023,2 81 -
06:49 14,4 11,2 1,4 NNW 3,2 1023,2 81 -
06:53 14,3 11,1   Calm 3,2 1023,2 81 -
06:59 14,1 10,9   Calm 1,6 1023,2 81 -
07:03 14,1 11,1   Calm 1,6 1023,2 82 -
07:09 14,1 10,9   Calm   1023,2 81 -
07:13 14,2 11,0   Calm   1023,6 81 -
07:19 14,3 11,1   Calm   1023,6 81 -
07:23 14,3 10,9   Calm   1023,6 80 -
07:29 14,5 11,3   Calm   1023,6 81 -
07:33 14,9 11,3   Calm   1023,6 79 -
07:39 15,1 11,3   Calm   1023,6 78 -
07:43 15,0 11,4   Calm   1023,6 79 -
07:49 15,2 11,6   Calm   1023,9 79 -
07:53 15,3 11,5   Calm   1023,9 78 -
07:59 15,9 11,7   Calm   1023,6 76 -
08:03 16,4 11,8   Calm   1023,9 74 -
08:09 16,8 11,5   Calm   1023,9 71 -
08:13 17,4 11,9   Calm   1023,9 70 -
08:19 18,6 12,4   Calm   1023,9 67 -

Download your copy of this data-set  here

Our weather-data as stored at Weather Underground. Script developed by Jim McMurry. Adapted for the template by Leuven-Template.eu

You find our weather info also at:

Weather Underground

Equipment we use:

Weather-station
Davis Vue

Weather-program
Meteobridge

Weather-server
Raspberry PI 2 B+

Provider
1 and 1

Davis Vue

Meteobridge

Raspberry PI 2 B+

1 and 1